Location: Lussas
(44.6119°N, 4.4726°E)
Time: 06:02:27
(UTC+00:00)

Cosmos 1328 Rocket - Pass Details

Date: 26 November 2020
Orbit: 602 x 626 km, 82.5° (Epoch: 18 January)

Event Time Altitude Azimuth Distance (km) Brightness Sun altitude
Exits shadow 05:22:05 10° 341° (NNW) 2,012 5.9 -15.9°
Reaches altitude 10° 05:22:08 10° 341° (NNW) 1,995 5.8 -15.9°
Maximum altitude 05:26:24 50° 267° (W) 795 3.7 -15.1°
Drops below altitude 10° 05:30:40 10° 192° (SSW) 1,991 6.2 -14.4°
Sets 05:32:56 0° 187° (S) 2,895 7.1 -14.0°
